N2XGL-1 Weather Reports


Display with metric or nautical units.
time (UTC)temp
F
wind
direction
speed
MPH
gust
MPH
rain 1hr
in
rain 24hr
in
rain mn
in
humidity
%
barometer
mb
20260504174548 68 248 10.0 16.0 0.00 0.00 0.00 32 999.9
20260504173653 67 248 3.0 6.0 0.00 0.00 0.00 36 1000.1
20260504172721 66 158 3.0 7.0 0.00 0.00 0.00 35 1000.0
20260504171743 65 158 2.0 5.0 0.00 0.00 0.00 40 1000.3
20260504170921 65 158 3.0 6.0 0.00 0.00 0.00 36 1000.3
20260504150644 61 270 11.0 16.0 0.00 0.00 0.00 35 1000.4
20260504141118 51 180 1.0 2.0 0.00 0.00 0.00 63 1000.5
20260504140214 50 0 0.0 2.0 0.00 0.00 0.00 64 1000.6
20260504110158 41 0 0.0 2.0 0.00 0.00 0.00 55 1000.6
20260504081409 49 0 0.0 2.0 0.00 0.00 0.00 42 1001.3
20260504081138 49 0 0.0 2.0 0.00 0.00 0.00 42 1001.3
20260504080308 49 338 1.0 2.0 0.00 0.00 0.00 41 1001.4
20260504070409 51 270 2.0 4.0 0.00 0.00 0.00 40 1001.9
20260504070153 51 270 2.0 4.0 0.00 0.00 0.00 40 1001.9
20260504050433 59 0 4.0 10.0 0.00 0.00 0.00 34 1001.9
20260504045558 60 0 6.0 15.0 0.00 0.00 0.00 33 1001.9
20260504044558 60 0 5.0 12.0 0.00 0.00 0.00 31 1001.9
20260504043611 60 0 8.0 14.0 0.00 0.00 0.00 33 1001.8
20260504042618 58 338 4.0 13.0 0.00 0.00 0.00 35 1001.8
20260504041812 58 270 6.0 10.0 0.00 0.00 0.00 35 1001.5
20260504040928 57 270 7.0 12.0 0.00 0.00 0.00 35 1001.6
20260504035947 57 270 7.0 13.0 0.00 0.00 0.00 36 1001.6
20260504035033 57 270 6.0 11.0 0.00 0.00 0.00 36 1001.6
20260504034228 57 270 6.0 10.0 0.00 0.00 0.00 36 1001.6
20260504033358 57 292 5.0 8.0 0.00 0.00 0.00 37 1001.7
20260504032501 58 270 3.0 6.0 0.00 0.00 0.00 36 1001.7
20260504031649 58 270 1.0 2.0 0.00 0.00 0.00 36 1001.7
20260504031538 58 270 1.0 2.0 0.00 0.00 0.00 36 1001.7
20260504031405 59 270 2.0 3.0 0.00 0.00 0.00 35 1001.5
20260504030548 59 270 2.0 3.0 0.00 0.00 0.00 35 1001.5
20260504025723 60 270 2.0 4.0 0.00 0.00 0.00 38 1001.5
20260504025020 61 270 2.0 4.0 0.00 0.00 0.00 35 1001.4
20260504024918 61 270 2.0 4.0 0.00 0.00 0.00 35 1001.4
20260504024000 62 270 4.0 6.0 0.00 0.00 0.00 31 1001.3
20260504023404 62 270 4.0 6.0 0.00 0.00 0.00 30 1001.3
20260504023053 62 270 4.0 6.0 0.00 0.00 0.00 30 1001.3
20260504022218 63 270 4.0 6.0 0.00 0.00 0.00 30 1001.2
20260504021227 64 270 3.0 6.0 0.00 0.00 0.00 29 1001.2
20260504020413 64 270 4.0 5.0 0.00 0.00 0.00 29 1001.1
20260504015608 65 270 4.0 6.0 0.00 0.00 0.00 28 1001.1
20260504014658 66 270 4.0 7.0 0.00 0.00 0.00 28 1001.1
20260504014513 66 270 4.0 9.0 0.00 0.00 0.00 28 1000.9
20260504013848 66 270 4.0 9.0 0.00 0.00 0.00 28 1000.9
20260504013001 67 270 5.0 7.0 0.00 0.00 0.00 28 1000.9
20260504010358 68 248 11.0 18.0 0.00 0.00 0.00 26 1001.2
20260504004508 69 270 8.0 16.0 0.00 0.00 0.00 26 1001.4
20260504003620 69 248 6.0 11.0 0.00 0.00 0.00 27 1001.4
20260504002623 70 270 8.0 14.0 0.00 0.00 0.00 26 1001.4
20260504001808 70 248 11.0 18.0 0.00 0.00 0.00 26 1001.7
20260504000813 70 248 9.0 14.0 0.00 0.00 0.00 26 1001.8
20260503235841 69 225 3.0 5.0 0.00 0.00 0.00 23 1001.8
20260503234903 69 202 5.0 14.0 0.00 0.00 0.00 26 1001.8
20260503234516 69 270 9.0 16.0 0.00 0.00 0.00 24 1002.1
20260503233943 69 270 9.0 16.0 0.00 0.00 0.00 24 1002.1
20260503233511 70 270 8.0 17.0 0.00 0.00 0.00 23 1002.2
20260503233113 70 270 8.0 17.0 0.00 0.00 0.00 23 1002.2
20260503232515 69 270 14.0 33.0 0.00 0.00 0.00 21 1002.1
20260503232223 69 270 14.0 33.0 0.00 0.00 0.00 21 1002.1
20260503231258 70 270 10.0 33.0 0.00 0.00 0.00 24 1001.8
20260503225521 70 248 11.0 19.0 0.00 0.00 0.00 25 1001.7
20260503225348 70 248 11.0 19.0 0.00 0.00 0.00 25 1001.7
20260503224541 70 270 10.0 19.0 0.00 0.00 0.00 24 1001.7
20260503223618 71 270 9.0 20.0 0.00 0.00 0.00 24 1002.1
20260503222619 71 270 9.0 14.0 0.00 0.00 0.00 24 1002.1
20260503220854 72 248 5.0 10.0 0.00 0.00 0.00 23 1002.0
20260503215941 73 270 13.0 21.0 0.00 0.00 0.00 21 1002.2
20260503214113 74 270 11.0 19.0 0.00 0.00 0.00 21 1002.3
20260503213249 74 270 9.0 15.0 0.00 0.00 0.00 18 1002.4
20260503212314 75 270 11.0 20.0 0.00 0.00 0.00 19 1002.5
20260503211349 75 270 9.0 18.0 0.00 0.00 0.00 18 1002.6
20260503210407 74 315 2.0 4.0 0.00 0.00 0.00 16 1002.7
20260503205413 74 0 5.0 9.0 0.00 0.00 0.00 18 1002.8
20260503204414 74 315 2.0 5.0 0.00 0.00 0.00 14 1003.0
20260503203432 74 22 2.0 7.0 0.00 0.00 0.00 15 1003.1
20260503203013 74 0 3.0 6.0 0.00 0.00 0.00 16 1003.1
20260503202538 74 0 3.0 6.0 0.00 0.00 0.00 16 1003.1
20260503201636 75 135 3.0 4.0 0.00 0.00 0.00 17 1003.3
20260503201541 75 135 3.0 4.0 0.00 0.00 0.00 17 1003.3
20260503200734 75 0 3.0 5.0 0.00 0.00 0.00 15 1003.4
20260503200015 77 270 7.0 14.0 0.00 0.00 0.00 19 1003.5
20260503195838 77 270 7.0 14.0 0.00 0.00 0.00 19 1003.5
20260503194908 75 248 4.0 10.0 0.00 0.00 0.00 18 1003.7
20260503193913 76 0 5.0 11.0 0.00 0.00 0.00 18 1003.8
20260503192913 78 248 4.0 10.0 0.00 0.00 0.00 17 1004.1
20260503191928 77 135 2.0 4.0 0.00 0.00 0.00 17 1004.2
20260503191048 78 248 4.0 10.0 0.00 0.00 0.00 17 1004.3
20260503185339 76 248 5.0 12.0 0.00 0.00 0.00 18 1004.6
20260503184448 75 248 8.0 17.0 0.00 0.00 0.00 18 1004.8
20260503183608 75 248 5.0 14.0 0.00 0.00 0.00 22 1004.9
20260503181913 76 248 7.0 14.0 0.00 0.00 0.00 18 1005.4
20260503181838 76 248 7.0 14.0 0.00 0.00 0.00 18 1005.4
20260503180938 75 270 6.0 13.0 0.00 0.00 0.00 20 1005.6